Simultaneous Nadir Overpasses (SNOs) Predictions

Prediction of SNOs near US between AQUA and NPP Satellite Orbit:

Table of predicted SNOs near US for the next 10.0 days since TLE Epoch: 11/30/2018
Index Date (AQUA) Time (AQUA) AQUA Lat,Lon Date (NPP) Time (NPP) NPP Lat,Lon Distance(km) Time Diff (sec)
1 12/02/2018 19:06:17 49.95, -92.52 12/02/2018 19:01:38 49.62, -94.46 143.58 279
2 12/02/2018 20:45:11 50.00,-117.27 12/02/2018 20:43:07 49.57,-119.81 188.78 124
3 12/05/2018 08:35:00 20.01,-101.87 12/05/2018 08:26:40 19.08,-102.37 116.39 500
4 12/05/2018 10:11:38 28.15,-124.62 12/05/2018 10:05:33 28.27,-125.41 77.98 365
5 12/08/2018 07:18:42 49.90, -75.98 12/08/2018 07:20:37 50.38, -78.27 171.64 115
6 12/08/2018 08:57:34 49.90,-100.70 12/08/2018 09:02:04 50.48,-103.59 216.08 270
7 12/10/2018 18:16:50 49.99, -80.18 12/10/2018 18:10:53 49.68, -81.81 121.95 357
8 12/10/2018 19:55:43 49.99,-104.90 12/10/2018 19:52:21 49.57,-107.13 167.20 202




NCC Satellite Simultaneous Nadir Overpasses (SNOs) Prediction Service
